* Astronomy

Members Login
Username 
 
Password 
    Remember Me  
Post Info TOPIC: Asteroid 2011 QT2


L

Posts: 131433
Date:
Asteroid 2011 QT2
Permalink  
 


Orbital elements:
2010 RM64
Epoch 2011 Aug. 27.0 TT = JDT 2455800.5                 MPC
M 355.28887              (2000.0)            P               Q
n   0.01130835     Peri.  291.08683     +0.61328276     -0.67238415
a  19.6578781      Node   113.99836     +0.78020952     +0.59747587
e   0.6867140      Incl.   26.98042     -0.12311524     +0.43694637
P  87.16           H   11.0           G   0.15           U   2

MPEC 2011 - Q13



__________________
Page 1 of 1  sorted by
Quick Reply

Please log in to post quick replies.



Create your own FREE Forum
Report Abuse
Powered by ActiveBoard